This demonstration page uses our WeatherBlox Daily Observations layout. Learn more.

Left ArrowRight Arrow

44.8408, -93.29828

Hourly Observations for September 3, 2022

Temp ( °F °C ) Dew Point ( °F °C ) Humidity (%) Winds ( mph kmh ) Pressure ( in mb ) Visibility ( mi km ) Precip ( " mm )
12:53 am 00:53 Mostly Clear 68 20 51 10.6 55 55 N 15 24 30.07 1018 10 16 0.00 0.00
1:53 am 01:53 Mostly Clear 66 18.9 51 10.6 59 59 NNE 12 19 30.08 1019 10 16 0.00 0.00
2:53 am 02:53 Clear 64 17.8 51 10.6 63 63 N 9 15 30.11 1020 10 16 0.00 0.00
3:53 am 03:53 Clear 62 16.7 51 10.6 67 67 N 8 13 30.12 1020 10 16 0.00 0.00
4:53 am 04:53 Clear 61 16.1 52 11.1 72 72 N 10 17 30.14 1021 10 16 0.00 0.00
5:53 am 05:53 Clear 60 15.6 51 10.6 72 72 N 8 13 30.16 1021 10 16 0.00 0.00
6:53 am 06:53 Mostly Sunny 59 15 51 10.6 75 75 N 10 17 30.18 1022 10 16 0.00 0.00
7:53 am 07:53 Sunny 60 15.6 51 10.6 72 72 N 12 19 30.21 1023 10 16 0.00 0.00
8:53 am 08:53 Sunny 64 17.8 51 10.6 63 63 NNE 13 20 30.21 1023 10 16 0.00 0.00
9:53 am 09:53 Sunny 66 18.9 51 10.6 59 59 NNE 13 20 30.22 1023 10 16 0.00 0.00
10:53 am 10:53 Sunny 68 20 52 11.1 57 57 NE 8 13 30.24 1024 10 16 0.00 0.00
11:53 am 11:53 Sunny 71 21.7 52 11.1 51 51 N 10 17 30.24 1024 10 16 0.00 0.00
12:53 pm 12:53 Mostly Sunny 72 22.2 52 11.1 49 49 NNE 12 19 30.24 1024 10 16 0.00 0.00
1:53 pm 13:53 Sunny 74 23.3 51 10.6 45 45 N 16 26 30.23 1024 10 16 0.00 0.00
2:53 pm 14:53 Sunny 75 23.9 52 11.1 45 45 NNE 12 19 30.22 1024 10 16 0.00 0.00
3:53 pm 15:53 Sunny 76 24.4 51 10.6 42 42 ENE 13 20 30.21 1023 10 16 0.00 0.00
4:53 pm 16:53 Sunny 75 23.9 50 10 41 41 NE 14 22 30.20 1023 10 16 0.00 0.00
5:53 pm 17:53 Sunny 74 23.3 50 10 43 43 NNE 13 20 30.20 1023 10 16 0.00 0.00
6:53 pm 18:53 Sunny 72 22.2 51 10.6 48 48 NNE 13 20 30.20 1023 10 16 0.00 0.00
7:53 pm 19:53 Clear 69 20.6 51 10.6 53 53 NNE 9 15 30.21 1023 10 16 0.00 0.00
8:53 pm 20:53 Clear 68 20 52 11.1 57 57 ENE 9 15 30.22 1023 10 16 0.00 0.00
9:53 pm 21:53 Clear 66 18.9 49 9.4 54 54 ENE 9 15 30.23 1024 10 16 0.00 0.00
10:53 pm 22:53 Clear 64 17.8 47 8.3 54 54 ENE 13 20 30.24 1024 10 16 0.00 0.00
11:53 pm 23:53 Clear 62 16.7 44 6.7 52 52 ENE 9 15 30.25 1024 10 16 0.00 0.00

Powered by AerisWeather